Waarnemingen

Advertentie
Mijn weer
Arezzo, Italië (16172): temperatuur & dauwpunt: 12.11.2018 17:00:00 - 18.11.2018 17:00:00 (CET)Arezzo, Italië (16172): windsnelheid: 12.11.2018 17:00:00 - 18.11.2018 17:00:00 (CET)Arezzo, Italië (16172): windrichting: 12.11.2018 17:00:00 - 18.11.2018 17:00:00 (CET)Arezzo, Italië (16172): luchtdruk: 12.11.2018 17:00:00 - 18.11.2018 17:00:00 (CET)Arezzo, Italië (16172): zicht: 12.11.2018 17:00:00 - 18.11.2018 17:00:00 (CET)
Datum & Tijd tt [°C] td [°C] ff [km/u] ff [kn] dd ppp [hPa] vv [km]
18.11.2018 17:00:00 - - - - - - -
18.11.2018 16:00:00 8,0 -1,3 0 0 N 1017,5 15
18.11.2018 15:00:00 - - - - - - -
18.11.2018 14:00:00 - - - - - - -
18.11.2018 13:00:00 9,0 -0,1 29 16 NNO 1019,1 15
18.11.2018 12:00:00 - - - - - - -
18.11.2018 11:00:00 - - - - - - -
18.11.2018 10:00:00 8,4 2,8 16 9 NNO 1019,2 14
18.11.2018 09:00:00 - - - - - - -
18.11.2018 08:00:00 - - - - - - -
18.11.2018 07:00:00 7,4 2,7 0 0 N 1019,7 12
18.11.2018 06:00:00 - - - - - - -
18.11.2018 05:00:00 - - - - - - -
18.11.2018 04:00:00 - - - - - - -
18.11.2018 03:00:00 - - - - - - -
18.11.2018 02:00:00 - - - - - - -
18.11.2018 01:00:00 - - - - - - -
18.11.2018 00:00:00 - - - - - - -
17.11.2018 23:00:00 - - - - - - -
17.11.2018 22:00:00 - - - - - - -
17.11.2018 21:00:00 - - - - - - -
17.11.2018 20:00:00 - - - - - - -
17.11.2018 19:00:00 8,0 3,7 11 6 NNO 1021,7 16
17.11.2018 18:00:00 - - - - - - -
17.11.2018 17:00:00 - - - - - - -
17.11.2018 16:00:00 9,0 4,6 15 8 NNO 1021,8 17
17.11.2018 15:00:00 - - - - - - -
17.11.2018 14:00:00 - - - - - - -
17.11.2018 13:00:00 10,2 3,9 13 7 N 1022,8 20
17.11.2018 12:00:00 - - - - - - -
17.11.2018 11:00:00 - - - - - - -
17.11.2018 10:00:00 9,8 3,3 11 6 NO 1023,1 17
17.11.2018 09:00:00 - - - - - - -
17.11.2018 08:00:00 - - - - - - -
17.11.2018 07:00:00 6,4 4,9 0 0 N 1023,5 15
17.11.2018 06:00:00 - - - - - - -
17.11.2018 05:00:00 - - - - - - -
17.11.2018 04:00:00 - - - - - - -
17.11.2018 03:00:00 - - - - - - -
17.11.2018 02:00:00 - - - - - - -
17.11.2018 01:00:00 - - - - - - -
17.11.2018 00:00:00 - - - - - - -
16.11.2018 23:00:00 - - - - - - -
16.11.2018 22:00:00 - - - - - - -
16.11.2018 21:00:00 - - - - - - -
16.11.2018 20:00:00 - - - - - - -
16.11.2018 19:00:00 10,0 2,1 8 4 NNO 1024,4 17
16.11.2018 18:00:00 - - - - - - -
16.11.2018 17:00:00 - - - - - - -
16.11.2018 16:00:00 12,0 1,3 16 9 O 1024,1 18
16.11.2018 15:00:00 - - - - - - -
16.11.2018 14:00:00 - - - - - - -
16.11.2018 13:00:00 11,6 4,6 16 9 ONO 1025,0 18
16.11.2018 12:00:00 - - - - - - -
16.11.2018 11:00:00 - - - - - - -
16.11.2018 10:00:00 12,0 3,2 21 11 ONO 1024,5 18
16.11.2018 09:00:00 - - - - - - -
16.11.2018 08:00:00 - - - - - - -
16.11.2018 07:00:00 7,2 4,7 0 0 N 1024,5 14
16.11.2018 06:00:00 - - - - - - -
16.11.2018 05:00:00 - - - - - - -
16.11.2018 04:00:00 - - - - - - -
16.11.2018 03:00:00 - - - - - - -
16.11.2018 02:00:00 - - - - - - -
16.11.2018 01:00:00 - - - - - - -
16.11.2018 00:00:00 - - - - - - -
15.11.2018 23:00:00 - - - - - - -
15.11.2018 22:00:00 - - - - - - -
15.11.2018 21:00:00 - - - - - - -
15.11.2018 20:00:00 - - - - - - -
15.11.2018 19:00:00 10,6 6,0 0 0 N 1024,2 18
15.11.2018 18:00:00 - - - - - - -
15.11.2018 17:00:00 - - - - - - -
15.11.2018 16:00:00 16,0 5,6 11 6 O 1023,4 20
15.11.2018 15:00:00 - - - - - - -
15.11.2018 14:00:00 - - - - - - -
15.11.2018 13:00:00 16,0 4,1 11 6 O 1024,6 20
15.11.2018 12:00:00 - - - - - - -
15.11.2018 11:00:00 - - - - - - -
15.11.2018 10:00:00 14,8 6,6 0 0 N 1025,6 20
15.11.2018 09:00:00 - - - - - - -
15.11.2018 08:00:00 - - - - - - -
15.11.2018 07:00:00 7,0 6,0 0 0 N 1026,6 12
15.11.2018 06:00:00 - - - - - - -
15.11.2018 05:00:00 - - - - - - -
15.11.2018 04:00:00 - - - - - - -
15.11.2018 03:00:00 - - - - - - -
15.11.2018 02:00:00 - - - - - - -
15.11.2018 01:00:00 - - - - - - -
15.11.2018 00:00:00 - - - - - - -
14.11.2018 23:00:00 - - - - - - -
14.11.2018 22:00:00 - - - - - - -
14.11.2018 21:00:00 - - - - - - -
14.11.2018 20:00:00 - - - - - - -
14.11.2018 19:00:00 12,4 10,6 0 0 N 1027,2 12
14.11.2018 18:00:00 - - - - - - -
14.11.2018 17:00:00 - - - - - - -
14.11.2018 16:00:00 13,2 10,4 0 0 N 1027,5 12
14.11.2018 15:00:00 - - - - - - -
14.11.2018 14:00:00 - - - - - - -
14.11.2018 13:00:00 12,0 8,7 0 0 N 1028,9 8
14.11.2018 12:00:00 - - - - - - -
14.11.2018 11:00:00 - - - - - - -
14.11.2018 10:00:00 9,0 7,3 0 0 N 1030,2 1,5
14.11.2018 09:00:00 - - - - - - -
14.11.2018 08:00:00 - - - - - - -
14.11.2018 07:00:00 8,0 7,1 0 0 N 1029,7 0,2
14.11.2018 06:00:00 - - - - - - -
14.11.2018 05:00:00 - - - - - - -
14.11.2018 04:00:00 - - - - - - -
14.11.2018 03:00:00 - - - - - - -
14.11.2018 02:00:00 - - - - - - -
14.11.2018 01:00:00 - - - - - - -
14.11.2018 00:00:00 - - - - - - -
13.11.2018 23:00:00 - - - - - - -
13.11.2018 22:00:00 - - - - - - -
13.11.2018 21:00:00 - - - - - - -
13.11.2018 20:00:00 - - - - - - -
13.11.2018 19:00:00 11,0 9,7 0 0 N 1030,2 0,2
13.11.2018 18:00:00 - - - - - - -
13.11.2018 17:00:00 - - - - - - -
13.11.2018 16:00:00 12,0 9,9 0 0 N 1030,1 0,8
13.11.2018 15:00:00 - - - - - - -
13.11.2018 14:00:00 - - - - - - -
13.11.2018 13:00:00 11,4 9,5 0 0 N 1031,0 0,8
13.11.2018 12:00:00 - - - - - - -
13.11.2018 11:00:00 - - - - - - -
13.11.2018 10:00:00 9,4 8,5 0 0 N 1031,3 0,3
13.11.2018 09:00:00 - - - - - - -
13.11.2018 08:00:00 - - - - - - -
13.11.2018 07:00:00 8,0 7,5 0 0 N 1029,5 0,2
13.11.2018 06:00:00 - - - - - - -
13.11.2018 05:00:00 - - - - - - -
13.11.2018 04:00:00 - - - - - - -
13.11.2018 03:00:00 - - - - - - -
13.11.2018 02:00:00 - - - - - - -
13.11.2018 01:00:00 - - - - - - -
13.11.2018 00:00:00 - - - - - - -
12.11.2018 23:00:00 - - - - - - -
12.11.2018 22:00:00 - - - - - - -
12.11.2018 21:00:00 - - - - - - -
12.11.2018 20:00:00 - - - - - - -
12.11.2018 19:00:00 10,4 9,2 0 0 N 1028,2 9
12.11.2018 18:00:00 - - - - - - -
12.11.2018 17:00:00 - - - - - - -

tt = temperatuur
td = dauwpunt
ff = windsnelheid
dd = windrichting
ppp = luchtdruk
vv = zicht

Weerstations in de omgeving